星链-4363 (STARLINK-4363 )

导读

STARLINK-4363是美国太空探索技术公司Starlink卫星互联网项目的成员,于2022年7月22日发射升空,属于星链星座扩容批次卫星。它主要依托低轨轨道运行,为全球提供高速卫星互联网接入服务,能填补地面网络覆盖盲区,服务偏远地区通信、海上及航空移动网络需求,是美国构建低轨巨型星座的组成部分。

基本信息
目录编号:
53220
目录名称:
STARLINK-4363
国际标识:
2022-084AH
轨道中心:
EARTH
卫星名称:
星链-4363
卫星全名:
星链-4363 (STARLINK-4363 )
卫星状态:
在轨 (已飞行1426 天)
发射日期:
2022-07-22 UTC
国别 :
美国 (US)
星等 :
--
轨道信息
数据来源 国际轨道数据 AOE轨道数据
星历时间 2026-06-17T10:03:19+0800
8小时前
查看轨道信息
2026-06-15T01:00:00+0800
2天前
查看轨道信息
半长轴 6927.718km 6927.612km
偏心率 0.0001698 0.0003815
轨道倾角 97.349° 97.361°
近地点辐角 113.765° 131.021°
升交点赤经 227.064° 224.800°
平近点角 246.376° 311.468°
近地点 548.404km 546.832km
远地点 550.758km 552.118km
周期 95.641分钟 95.639分钟
每日圈数 15.056274 15.056619
详细信息
固有亮度:
5
最大亮度:
2.5
卫星平台:
Starlink v1.5
覆盖范围:
全球
运营商:
太空探索技术公司
运营商所在国:
美国
制造商(研发单位):
太空探索技术公司
制造商所在国:
美国
使用方式:
暂无
卫星简介
星链(Starlink)计划是由太空探索技术公司(SpaceX)提出的一个巨型低轨卫星互联网星座项目,计划在2019年至2024年间在太空搭建由约1.2万颗卫星组成的“星链”网络,其中1584颗将部署在地球上空550千米处的近地轨道,并从2020年开始工作。该卫星仍在工作。
2D轨道图
3D轨道图
轨道高度分析图
轨道倾角分析图
轨道综合分析图
查看轨道综合分析图